| time (UTC) | temp F | wind direction | speed knots | gust knots | rain 1hr in | rain 24hr in | rain mn in | humidity % | barometer mb |
| 20260504215714 | 66 | 215 | 3.5 | 5.2 | 0.00 | 0.02 | 0.02 | 33 | 1006.3 |
| 20260504215211 | 66 | 282 | 2.6 | 7.0 | 0.00 | 0.02 | 0.02 | 34 | 1006.7 |
| 20260504214706 | 65 | 267 | 2.6 | 8.7 | 0.00 | 0.02 | 0.02 | 35 | 1006.5 |
| 20260504214203 | 66 | 231 | 1.7 | 7.8 | 0.00 | 0.02 | 0.02 | 36 | 1006.7 |
| 20260504213700 | 65 | 215 | 2.6 | 10.4 | 0.00 | 0.02 | 0.02 | 33 | 1006.7 |
| 20260504213156 | 67 | 250 | 4.3 | 9.6 | 0.00 | 0.02 | 0.02 | 33 | 1006.9 |
| 20260504212653 | 67 | 273 | 1.7 | 7.0 | 0.00 | 0.02 | 0.02 | 34 | 1006.9 |
| 20260504212150 | 67 | 250 | 1.7 | 4.3 | 0.00 | 0.02 | 0.02 | 32 | 1006.9 |
| 20260504211647 | 67 | 279 | 2.6 | 5.2 | 0.00 | 0.02 | 0.02 | 33 | 1006.9 |
| 20260504211143 | 68 | 241 | 3.5 | 8.7 | 0.00 | 0.02 | 0.02 | 31 | 1007.1 |
| 20260504210641 | 67 | 286 | 1.7 | 5.2 | 0.00 | 0.02 | 0.02 | 32 | 1007.2 |
| 20260504210137 | 67 | 253 | 4.3 | 10.4 | 0.00 | 0.02 | 0.02 | 32 | 1007.2 |
| 20260504205635 | 67 | 238 | 5.2 | 9.6 | 0.00 | 0.02 | 0.02 | 33 | 1007.0 |
| 20260504205132 | 67 | 290 | 2.6 | 7.8 | 0.00 | 0.02 | 0.02 | 34 | 1007.2 |
| 20260504204631 | 68 | 210 | 3.5 | 7.0 | 0.00 | 0.02 | 0.02 | 31 | 1007.2 |
| 20260504204129 | 65 | 126 | 2.6 | 7.8 | 0.00 | 0.02 | 0.02 | 32 | 1007.0 |
| 20260504203628 | 67 | 192 | 2.6 | 8.7 | 0.00 | 0.02 | 0.02 | 35 | 1007.7 |
| 20260504203125 | 68 | 226 | 1.7 | 5.2 | 0.00 | 0.02 | 0.02 | 38 | 1007.2 |
| 20260504202625 | 67 | 213 | 3.5 | 6.1 | 0.00 | 0.02 | 0.02 | 34 | 1007.2 |
| 20260504202122 | 65 | 150 | 7.0 | 10.4 | 0.00 | 0.02 | 0.02 | 32 | 1007.1 |
| 20260504201619 | 67 | 222 | 7.0 | 7.8 | 0.00 | 0.02 | 0.02 | 32 | 1007.4 |
| 20260504201117 | 67 | 359 | 1.7 | 4.3 | 0.00 | 0.02 | 0.02 | 34 | 1007.4 |
| 20260504200614 | 68 | 195 | 1.7 | 6.1 | 0.00 | 0.02 | 0.02 | 32 | 1007.5 |
| 20260504200110 | 67 | 261 | 2.6 | 4.3 | 0.00 | 0.02 | 0.02 | 40 | 1007.2 |
| 20260504195606 | 66 | 277 | 3.5 | 9.6 | 0.00 | 0.02 | 0.02 | 34 | 1007.5 |
| 20260504195102 | 66 | 283 | 3.5 | 9.6 | 0.00 | 0.02 | 0.02 | 38 | 1007.5 |
| 20260504194600 | 67 | 235 | 2.6 | 5.2 | 0.00 | 0.02 | 0.02 | 34 | 1007.7 |
| 20260504194055 | 66 | 263 | 0.9 | 10.4 | 0.00 | 0.02 | 0.02 | 38 | 1007.7 |
| 20260504193552 | 67 | 244 | 1.7 | 6.1 | 0.00 | 0.02 | 0.02 | 42 | 1007.7 |
| 20260504193050 | 65 | 31 | 0.0 | 3.5 | 0.00 | 0.02 | 0.02 | 34 | 1007.7 |
| 20260504192548 | 65 | 88 | 3.5 | 10.4 | 0.00 | 0.02 | 0.02 | 36 | 1007.7 |
| 20260504192046 | 66 | 182 | 3.5 | 5.2 | 0.00 | 0.02 | 0.02 | 36 | 1007.8 |
| 20260504191544 | 65 | 216 | 5.2 | 7.0 | 0.00 | 0.02 | 0.02 | 37 | 1007.8 |
| 20260504191039 | 66 | 259 | 1.7 | 4.3 | 0.00 | 0.02 | 0.02 | 41 | 1008.1 |
| 20260504190536 | 65 | 167 | 2.6 | 4.3 | 0.00 | 0.02 | 0.02 | 35 | 1008.1 |
| 20260504190032 | 65 | 289 | 3.5 | 7.8 | 0.00 | 0.02 | 0.02 | 42 | 1007.8 |
| 20260504185530 | 64 | 296 | 2.6 | 5.2 | 0.00 | 0.02 | 0.02 | 39 | 1008.1 |
| 20260504185026 | 65 | 247 | 3.5 | 9.6 | 0.00 | 0.02 | 0.02 | 38 | 1008.1 |
| 20260504184521 | 64 | 295 | 3.5 | 8.7 | 0.00 | 0.02 | 0.02 | 41 | 1008.1 |
| 20260504184017 | 64 | 230 | 3.5 | 4.3 | 0.00 | 0.02 | 0.02 | 43 | 1008.2 |
| 20260504183514 | 65 | 278 | 1.7 | 5.2 | 0.00 | 0.02 | 0.02 | 44 | 1008.4 |
| 20260504183013 | 65 | 250 | 2.6 | 3.5 | 0.00 | 0.02 | 0.02 | 44 | 1008.1 |
| 20260504182509 | 65 | 324 | 1.7 | 5.2 | 0.00 | 0.02 | 0.02 | 45 | 1008.2 |
| 20260504182006 | 63 | 305 | 1.7 | 2.6 | 0.00 | 0.02 | 0.02 | 47 | 1008.5 |
| 20260504181503 | 63 | 253 | 5.2 | 5.2 | 0.00 | 0.02 | 0.02 | 46 | 1008.4 |
| 20260504181002 | 62 | 263 | 1.7 | 5.2 | 0.00 | 0.02 | 0.02 | 48 | 1008.7 |
| 20260504180500 | 64 | 317 | 0.9 | 1.7 | 0.00 | 0.02 | 0.02 | 45 | 1008.4 |
| 20260504175958 | 63 | 286 | 2.6 | 6.1 | 0.00 | 0.02 | 0.02 | 47 | 1008.4 |
| 20260504175455 | 63 | 151 | 2.6 | 9.6 | 0.00 | 0.02 | 0.02 | 45 | 1008.5 |
| 20260504174952 | 64 | 118 | 2.6 | 3.5 | 0.00 | 0.02 | 0.02 | 44 | 1008.9 |
| 20260504174450 | 64 | 139 | 3.5 | 4.3 | 0.00 | 0.02 | 0.02 | 44 | 1008.7 |
| 20260504173947 | 62 | 298 | 1.7 | 2.6 | 0.00 | 0.02 | 0.02 | 48 | 1008.5 |
| 20260504173443 | 62 | 263 | 1.7 | 3.5 | 0.00 | 0.02 | 0.02 | 51 | 1008.8 |
| 20260504172941 | 62 | 260 | 1.7 | 4.3 | 0.00 | 0.02 | 0.02 | 51 | 1008.7 |
| 20260504172437 | 62 | 288 | 1.7 | 2.6 | 0.00 | 0.02 | 0.02 | 50 | 1008.8 |
| 20260504171934 | 62 | 295 | 0.9 | 2.6 | 0.00 | 0.02 | 0.02 | 50 | 1008.7 |
| 20260504171431 | 62 | 265 | 1.7 | 6.1 | 0.00 | 0.02 | 0.02 | 51 | 1008.7 |
| 20260504170928 | 62 | 237 | 1.7 | 2.6 | 0.00 | 0.02 | 0.02 | 55 | 1008.8 |
| 20260504170424 | 62 | 312 | 2.6 | 3.5 | 0.00 | 0.02 | 0.02 | 55 | 1008.7 |
| 20260504160343 | 57 | 108 | 4.3 | 6.1 | 0.00 | 0.02 | 0.02 | 66 | 1008.3 |
| 20260504150808 | 55 | 51 | 2.6 | 7.8 | 0.00 | 0.02 | 0.02 | 67 | 1008.5 |
| 20260504150304 | 54 | 47 | 7.0 | 10.4 | 0.00 | 0.02 | 0.02 | 67 | 1008.9 |
| 20260504141234 | 50 | 46 | 4.3 | 7.0 | 0.00 | 0.02 | 0.02 | 74 | 1008.9 |
| 20260504140731 | 50 | 32 | 3.5 | 5.2 | 0.00 | 0.02 | 0.02 | 75 | 1009.0 |
| 20260504140226 | 50 | 0 | 3.5 | 7.0 | 0.00 | 0.02 | 0.02 | 74 | 1008.8 |
| 20260504130655 | 49 | 56 | 6.1 | 11.3 | 0.00 | 0.02 | 0.02 | 76 | 1008.3 |
| 20260504130151 | 49 | 31 | 5.2 | 6.1 | 0.00 | 0.02 | 0.02 | 77 | 1008.3 |
| 20260504120115 | 49 | 118 | 0.0 | 2.6 | 0.00 | 0.02 | 0.02 | 78 | 1008.2 |
| 20260504110543 | 49 | 36 | 3.5 | 7.0 | 0.02 | 0.01 | 0.01 | 77 | 1008.2 |
| 20260504100459 | 51 | 69 | 4.3 | 8.7 | 0.00 | 0.00 | 0.00 | 71 | 1007.9 |
| 20260504081852 | 50 | 329 | 1.7 | 1.7 | 0.02 | 0.00 | 0.00 | 79 | 1009.6 |
| 20260504081349 | 51 | 278 | 0.0 | 5.2 | 0.00 | 0.00 | 0.00 | 75 | 1009.8 |
| 20260504080844 | 51 | 262 | 3.5 | 7.0 | 0.00 | 0.00 | 0.00 | 73 | 1009.6 |
| 20260504080342 | 52 | 200 | 3.5 | 7.8 | 0.00 | 0.00 | 0.00 | 66 | 1008.7 |
| 20260504070310 | 52 | 75 | 3.5 | 9.6 | 0.00 | 0.00 | 0.00 | 67 | 1008.7 |
| 20260504060230 | 52 | 52 | 4.3 | 11.3 | 0.00 | 0.00 | 0.00 | 70 | 1008.9 |
| 20260504050657 | 52 | 67 | 6.1 | 12.2 | 0.00 | 0.26 | 0.26 | 73 | 1009.4 |
| 20260504050154 | 52 | 60 | 7.0 | 10.4 | 0.00 | 0.26 | 0.26 | 73 | 1009.4 |
| 20260504045652 | 52 | 65 | 6.1 | 12.2 | 0.00 | 0.26 | 0.26 | 74 | 1009.2 |
| 20260504045151 | 52 | 62 | 10.4 | 11.3 | 0.00 | 0.26 | 0.26 | 73 | 1009.2 |
| 20260504044649 | 52 | 57 | 7.0 | 10.4 | 0.00 | 0.26 | 0.26 | 73 | 1009.2 |
| 20260504044146 | 52 | 54 | 7.8 | 11.3 | 0.00 | 0.26 | 0.26 | 73 | 1009.4 |
| 20260504043643 | 52 | 70 | 7.8 | 10.4 | 0.00 | 0.26 | 0.26 | 73 | 1009.2 |
| 20260504043140 | 52 | 66 | 6.1 | 12.2 | 0.00 | 0.26 | 0.26 | 74 | 1009.4 |
| 20260504042638 | 51 | 74 | 3.5 | 10.4 | 0.00 | 0.26 | 0.26 | 76 | 1009.4 |
| 20260504042134 | 51 | 83 | 5.2 | 9.6 | 0.00 | 0.26 | 0.26 | 75 | 1009.1 |
| 20260504041630 | 51 | 57 | 6.1 | 9.6 | 0.00 | 0.26 | 0.26 | 76 | 1009.5 |
| 20260504041126 | 51 | 57 | 7.8 | 11.3 | 0.00 | 0.26 | 0.26 | 76 | 1009.1 |
| 20260504040624 | 51 | 59 | 6.1 | 13.0 | 0.00 | 0.26 | 0.26 | 77 | 1009.2 |
| 20260504040120 | 52 | 61 | 4.3 | 9.6 | 0.00 | 0.26 | 0.26 | 75 | 1009.4 |
| 20260504035617 | 52 | 80 | 5.2 | 11.3 | 0.00 | 0.26 | 0.26 | 75 | 1009.4 |
| 20260504035114 | 51 | 53 | 4.3 | 7.8 | 0.00 | 0.26 | 0.26 | 76 | 1009.4 |
| 20260504034612 | 52 | 52 | 4.3 | 14.8 | 0.00 | 0.26 | 0.26 | 75 | 1009.6 |
| 20260504034108 | 51 | 49 | 6.1 | 7.0 | 0.00 | 0.26 | 0.26 | 77 | 1009.4 |
| 20260504033606 | 51 | 49 | 9.6 | 12.2 | 0.00 | 0.26 | 0.26 | 76 | 1009.4 |
| 20260504033103 | 51 | 31 | 4.3 | 12.2 | 0.00 | 0.26 | 0.26 | 78 | 1009.2 |
| 20260504032600 | 51 | 66 | 10.4 | 16.5 | 0.00 | 0.26 | 0.26 | 78 | 1009.5 |
| 20260504032057 | 51 | 65 | 4.3 | 11.3 | 0.00 | 0.26 | 0.26 | 80 | 1009.5 |
| 20260504031554 | 51 | 35 | 5.2 | 7.8 | 0.00 | 0.26 | 0.26 | 77 | 1009.6 |
| 20260504031050 | 52 | 27 | 2.6 | 10.4 | 0.00 | 0.26 | 0.26 | 75 | 1009.6 |
| 20260504030547 | 52 | 102 | 5.2 | 9.6 | 0.00 | 0.26 | 0.26 | 75 | 1009.7 |
| 20260504030043 | 52 | 34 | 4.3 | 15.6 | 0.00 | 0.26 | 0.26 | 75 | 1009.6 |
| 20260504025541 | 51 | 50 | 11.3 | 14.8 | 0.00 | 0.26 | 0.26 | 78 | 1009.9 |
| 20260504025037 | 51 | 67 | 4.3 | 7.8 | 0.00 | 0.26 | 0.26 | 82 | 1009.9 |
| 20260504024535 | 50 | 57 | 5.2 | 6.1 | 0.00 | 0.26 | 0.26 | 79 | 1010.3 |
| 20260504024031 | 50 | 67 | 3.5 | 4.3 | 0.00 | 0.26 | 0.26 | 84 | 1009.9 |
| 20260504023528 | 50 | 355 | 0.0 | 4.3 | 0.00 | 0.26 | 0.26 | 82 | 1010.4 |
| 20260504023024 | 51 | 2 | 0.0 | 8.7 | 0.00 | 0.26 | 0.26 | 77 | 1009.9 |
| 20260504022520 | 51 | 77 | 4.3 | 9.6 | 0.00 | 0.26 | 0.26 | 78 | 1009.9 |
| 20260504022016 | 51 | 35 | 3.5 | 8.7 | 0.00 | 0.26 | 0.26 | 79 | 1010.1 |
| 20260504021514 | 51 | 96 | 7.0 | 9.6 | 0.00 | 0.26 | 0.26 | 78 | 1010.1 |
| 20260504021011 | 51 | 82 | 3.5 | 8.7 | 0.00 | 0.26 | 0.26 | 79 | 1009.7 |
| 20260504020508 | 50 | 42 | 5.2 | 8.7 | 0.00 | 0.26 | 0.26 | 81 | 1009.8 |
| 20260504020004 | 51 | 52 | 5.2 | 18.2 | 0.00 | 0.26 | 0.26 | 80 | 1009.6 |
| 20260504015500 | 50 | 75 | 7.0 | 8.7 | 0.00 | 0.26 | 0.26 | 84 | 1009.6 |
| 20260504014956 | 50 | 53 | 8.7 | 10.4 | 0.00 | 0.26 | 0.26 | 84 | 1009.7 |
| 20260504014452 | 50 | 45 | 7.0 | 9.6 | 0.00 | 0.26 | 0.26 | 85 | 1009.7 |
| 20260504013950 | 51 | 57 | 4.3 | 12.2 | 0.00 | 0.26 | 0.26 | 84 | 1009.9 |
| 20260504013448 | 51 | 38 | 6.1 | 15.6 | 0.00 | 0.26 | 0.26 | 79 | 1010.2 |
| 20260504012944 | 51 | 67 | 8.7 | 16.5 | 0.00 | 0.26 | 0.26 | 81 | 1010.3 |
| 20260504012442 | 50 | 43 | 2.6 | 10.4 | 0.00 | 0.26 | 0.26 | 85 | 1010.1 |
| 20260504011940 | 51 | 23 | 2.6 | 10.4 | 0.02 | 0.26 | 0.26 | 87 | 1010.4 |
| 20260504011436 | 51 | 43 | 7.8 | 13.0 | 0.17 | 0.26 | 0.26 | 89 | 1010.5 |
| 20260504010932 | 50 | 52 | 7.8 | 10.4 | 0.28 | 0.26 | 0.26 | 90 | 1010.8 |
| 20260504010428 | 50 | 317 | 3.5 | 3.5 | 0.26 | 0.23 | 0.23 | 92 | 1011.4 |
| 20260504005924 | 51 | 277 | 2.6 | 3.5 | 0.19 | 0.20 | 0.20 | 93 | 1011.6 |
| 20260504005421 | 51 | 98 | 0.0 | 0.9 | 0.21 | 0.19 | 0.19 | 92 | 1011.5 |
| 20260504004919 | 51 | 3 | 0.0 | 0.9 | 0.24 | 0.17 | 0.17 | 92 | 1011.7 |
| 20260504004416 | 52 | 230 | 0.0 | 1.7 | 0.21 | 0.15 | 0.15 | 91 | 1011.4 |
| 20260504003913 | 51 | 34 | 1.7 | 1.7 | 0.12 | 0.13 | 0.13 | 88 | 1011.6 |
| 20260504003409 | 52 | 291 | 0.0 | 1.7 | 0.02 | 0.11 | 0.11 | 87 | 1011.6 |
| 20260504002906 | 52 | 308 | 0.0 | 1.7 | 0.12 | 0.11 | 0.11 | 84 | 1011.4 |
| 20260504002403 | 53 | 118 | 2.6 | 2.6 | 0.14 | 0.10 | 0.10 | 81 | 1011.1 |
| 20260504001900 | 54 | 283 | 4.3 | 6.1 | 0.19 | 0.09 | 0.09 | 73 | 1011.0 |
| 20260504001358 | 56 | 292 | 4.3 | 7.0 | 0.14 | 0.07 | 0.07 | 67 | 1010.5 |
| 20260504000854 | 58 | 291 | 3.5 | 5.2 | 0.05 | 0.06 | 0.06 | 63 | 1009.8 |
| 20260504000353 | 63 | 117 | 0.9 | 6.1 | 0.00 | 0.05 | 0.05 | 44 | 1009.0 |
| 20260503235849 | 65 | 279 | 3.5 | 4.3 | 0.00 | 0.05 | 0.05 | 38 | 1008.8 |
| 20260503235347 | 66 | 296 | 1.7 | 2.6 | 0.00 | 0.05 | 0.05 | 33 | 1008.3 |
| 20260503234844 | 66 | 60 | 2.6 | 2.6 | 0.00 | 0.05 | 0.05 | 31 | 1008.1 |
| 20260503234341 | 67 | 305 | 1.7 | 2.6 | 0.00 | 0.05 | 0.05 | 31 | 1008.1 |
| 20260503233839 | 66 | 310 | 1.7 | 2.6 | 0.00 | 0.05 | 0.05 | 31 | 1008.2 |
| 20260503233335 | 66 | 308 | 1.7 | 4.3 | 0.00 | 0.05 | 0.05 | 31 | 1007.9 |
| 20260503232831 | 66 | 296 | 3.5 | 7.8 | 0.00 | 0.05 | 0.05 | 31 | 1007.9 |
| 20260503232329 | 66 | 290 | 6.1 | 7.0 | 0.00 | 0.05 | 0.05 | 31 | 1007.8 |
| 20260503231827 | 68 | 279 | 1.7 | 2.6 | 0.00 | 0.05 | 0.05 | 31 | 1008.1 |
| 20260503231323 | 69 | 281 | 2.6 | 2.6 | 0.00 | 0.05 | 0.05 | 31 | 1007.8 |
| 20260503230819 | 69 | 259 | 4.3 | 4.3 | 0.00 | 0.05 | 0.05 | 29 | 1008.1 |
| 20260503230316 | 69 | 151 | 3.5 | 10.4 | 0.00 | 0.05 | 0.05 | 28 | 1008.2 |
| 20260503225814 | 70 | 171 | 6.1 | 9.6 | 0.00 | 0.05 | 0.05 | 27 | 1007.7 |
| 20260503225309 | 70 | 144 | 3.5 | 7.8 | 0.00 | 0.05 | 0.05 | 25 | 1008.1 |
| 20260503224806 | 71 | 322 | 0.0 | 1.7 | 0.00 | 0.05 | 0.05 | 28 | 1008.3 |
| 20260503224304 | 71 | 80 | 0.9 | 5.2 | 0.00 | 0.05 | 0.05 | 24 | 1008.2 |
| 20260503223801 | 72 | 286 | 1.7 | 3.5 | 0.00 | 0.05 | 0.05 | 26 | 1008.4 |
| 20260503223259 | 71 | 297 | 6.1 | 9.6 | 0.00 | 0.05 | 0.05 | 27 | 1008.5 |
| 20260503222755 | 73 | 262 | 1.7 | 10.4 | 0.00 | 0.05 | 0.05 | 27 | 1008.5 |
| 20260503222253 | 72 | 151 | 5.2 | 6.1 | 0.00 | 0.05 | 0.05 | 23 | 1008.5 |
| 20260503221751 | 71 | 180 | 5.2 | 13.0 | 0.00 | 0.05 | 0.05 | 24 | 1008.8 |
| 20260503221249 | 71 | 169 | 3.5 | 11.3 | 0.00 | 0.05 | 0.05 | 24 | 1008.9 |
| 20260503220745 | 71 | 154 | 6.1 | 11.3 | 0.00 | 0.05 | 0.05 | 23 | 1008.9 |
| 20260503220242 | 72 | 285 | 3.5 | 13.0 | 0.00 | 0.05 | 0.05 | 23 | 1008.9 |